Location: Newark
(45.9456°N, 15.4064°E)
Time: 14:12:05
(UTC+00:00)

Tiros 1 despin weight - Visible Passes

Search period start: 26 January 2020 00:00
Search period end: 05 February 2020 00:00
Orbit: 594 x 642 km, 48.2° (Epoch: 25 January)

Date Brightness Start Highest point End Pass type
(mag) Time Alt. Az. Time Alt. Az. Time Alt. Az.
26 Jan ? 16:45:17 10° W 16:47:55 15° SW 16:50:34 10° S visible
03 Feb ? 05:27:19 10° SSE 05:29:09 12° SE 05:30:59 10° ESE visible
04 Feb ? 05:41:52 10° SSW 05:45:18 22° SE 05:48:47 10° E visible
